Dewpoint
55 54 54 55 55 56 56 57 57 58 58 58 58 59 59 59 58 50 34 36 39 50 58 60 63 62 61 58 58 56 55 44 42 42 44 47 45 47 48 48 47 47 48 53 60
53 54 54 54 55 56 56 56 56 57 57 58 58 58 59 59 49 40 38 40 53 61 61 60 59 59 57 57 55 54 49 46 45 45 44 46 46 47 46 47 50 48 50 56 60
54 54 54 55 55 55 55 56 56 56 56 57 58 58 59 58 49 39 44 42 57 62 59 59 60 57 56 54 51 48 46 44 45 46 45 45 46 47 45 44 47 49 51 56 58
54 54 54 55 55 55 56 56 56 56 56 56 57 58 59 54 44 43 50 59 59 57 59 59 58 57 51 50 50 49 46 47 45 46 45 44 46 45 46 44 47 52 52 55 57
54 54 54 54 54 55 55 55 56 56 56 56 57 58 52 47 46 48 54 59 61 61 58 57 54 53 49 49 49 48 45 46 45 46 46 46 45 45 46 47 49 53 51 53 54
54 54 54 53 54 54 54 55 55 55 56 57 58 58 48 34 46 53 51 53 58 58 56 55 53 53 52 48 49 46 45 44 45 46 47 45 44 45 46 49 51 53 51 50 52
53 53 53 53 54 54 54 54 54 55 56 57 58 50 35 27 44 46 43 50 54 54 54 54 54 53 51 47 47 45 43 42 43 44 45 45 44 44 47 49 52 53 53 49 49
52 52 52 53 53 53 53 53 54 55 56 58 58 46 33 28 41 48 41 46 48 49 52 53 54 53 51 48 45 42 39 42 41 43 44 44 43 44 46 49 51 53 54 52 49
52 52 52 52 52 53 53 53 54 55 57 57 50 41 31 39 37 43 43 42 43 44 47 47 48 49 46 45 39 36 34 34 38 40 43 43 42 42 45 46 49 52 53 54 50
52 52 52 52 52 52 52 53 54 53 52 45 38 28 29 33 35 38 42 41 41 42 45 47 47 45 42 38 38 33 35 34 35 39 40 41 40 40 44 44 46 50 52 54 52
51 52 52 52 52 52 50 39 34 35 33 27 26 32 29 33 35 36 39 44 45 44 43 46 43 39 41 39 37 34 34 33 35 36 35 36 36 36 39 42 42 45 50 53 53
51 52 52 51 51 52 49 28 28 29 21 20 20 21 24 33 32 35 37 41 44 42 43 44 40 39 42 41 38 34 32 33 31 35 35 34 35 34 34 36 40 42 45 50 53
51 51 51 51 51 49 29 27 31 30 19 11 17 20 23 26 29 32 35 37 39 38 40 40 40 42 41 39 38 34 31 30 29 29 29 34 34 33 34 35 35 41 43 47 50
51 51 51 50 44 25 27 30 30 30 19 14 14 11 19 23 27 29 35 36 35 34 34 37 38 38 40 39 37 30 31 30 29 29 28 36 27 31 31 33 32 37 40 43 48
50 51 51 50 39 28 35 31 30 30 17 16 13 22 12 20 24 26 30 35 34 32 33 33 34 36 37 36 35 32 33 32 31 29 28 28 27 27 26 30 29 32 36 41 45
51 51 50 47 42 29 31 30 29 20 10 16 20 18 13 11 17 24 27 31 32 32 31 31 32 33 33 34 33 33 31 30 31 29 25 26 25 17 23 25 27 29 35 38 41
51 50 50 45 28 31 32 29 23 15 10 16 17 16 15 10 7 17 22 28 29 27 27 27 26 28 32 31 30 31 29 25 24 25 23 26 25 23 21 25 25 30 34 40 43
50 50 50 39 32 33 30 26 21 16 8 21 19 18 16 15 12 7 14 20 27 27 24 23 22 24 25 26 25 24 25 24 21 23 23 27 24 22 24 22 23 32 42 45 45
50 43 36 34 35 34 29 20 18 17 14 16 17 18 18 18 15 9 9 13 19 24 24 23 22 22 23 24 24 19 17 21 22 21 23 21 22 23 23 20 28 32 41 44 47
45 29 30 38 34 29 24 18 15 20 21 17 15 20 19 18 17 15 11 10 12 18 20 18 16 18 20 18 17 15 15 16 17 16 19 21 22 19 22 21 27 29 36 48 50
42 25 37 39 31 20 13 12 14 20 21 18 16 20 19 20 18 18 16 16 15 14 16 17 15 16 17 16 16 16 15 14 14 17 18 21 21 25 24 23 26 29 41 48 49
34 19 34 29 13 9 8 11 18 18 21 19 18 18 18 19 18 19 21 20 19 14 14 15 14 12 13 15 16 16 14 16 13 14 16 19 18 20 21 24 29 32 52 51 51
37 30 32 26 10 5 9 11 12 18 16 14 13 15 16 18 20 21 19 21 23 20 20 19 15 11 12 16 16 15 14 13 14 15 15 16 19 20 27 30 42 43 51 55 56
40 28 28 28 19 19 11 10 12 12 10 10 12 15 15 15 18 20 21 21 25 25 32 28 21 17 15 17 22 23 17 15 13 11 11 12 15 16 19 29 47 54 56 56 58
37 32 36 21 16 16 13 14 12 11 25 21 22 22 18 16 14 13 16 17 19 26 27 28 25 23 21 22 20 22 23 19 16 15 13 13 14 16 32 34 37 52 58 58 59
39 36 37 28 32 28 26 23 24 22 25 27 28 26 27 27 22 19 15 16 17 22 27 26 26 26 24 24 22 23 23 23 21 20 18 18 17 21 42 36 42 53 57 57 59
39 38 36 32 26 25 22 25 27 26 29 28 32 32 29 32 34 32 26 24 26 27 30 30 28 27 24 22 21 23 26 32 32 29 34 36 42 40 47 46 47 53 56 56 58
Wind_Speed
14 14 14 13 13 13 13 13 13 13 13 14 14 13 13 14 18 7 9 5 4 16 9 7 7 7 9 3 8 7 7 5 11 8 12 7 13 7 7 10 8 5 6 26 25
14 14 14 14 14 14 14 13 13 14 15 14 14 14 13 13 11 11 6 7 11 16 12 9 6 6 4 4 6 7 11 10 9 4 11 8 6 8 11 7 10 10 14 21 24
15 15 15 15 15 15 15 14 14 14 15 15 15 14 12 12 5 8 6 6 12 14 13 5 5 9 11 9 5 3 6 4 9 7 2 10 6 4 5 5 10 13 16 21 22
16 16 16 16 16 17 16 16 15 15 16 15 16 14 12 7 1 5 6 8 12 13 9 1 5 13 8 3 3 8 3 4 7 6 3 3 11 6 2 11 9 16 19 22 22
18 18 18 17 17 18 18 17 16 16 17 15 17 11 7 4 6 11 9 12 10 10 6 3 9 11 4 2 7 7 5 4 7 6 2 2 3 5 4 9 12 17 18 20 20
19 19 20 19 18 19 19 19 18 17 18 15 16 12 4 11 8 12 12 14 12 9 3 8 6 8 9 5 4 2 3 3 6 11 5 9 8 6 11 10 14 17 18 19 20
20 20 20 20 20 19 20 20 19 18 17 13 11 8 10 3 3 16 14 13 12 11 6 4 8 10 10 6 1 6 11 13 9 4 3 5 9 8 11 11 14 16 15 16 17
20 21 22 22 23 21 21 22 20 17 15 12 7 9 7 4 2 10 14 13 11 11 9 8 9 12 10 3 12 14 8 12 10 5 7 9 10 13 11 12 13 14 15 15 16
21 22 22 23 24 24 23 22 19 14 10 9 6 8 7 5 10 13 14 12 11 10 9 11 12 14 9 19 15 12 7 7 6 4 3 6 5 9 9 12 13 15 16 17 18
22 23 23 23 23 24 28 19 5 7 8 10 12 8 9 11 11 12 13 10 9 9 10 12 10 17 14 14 4 9 8 5 4 5 7 9 13 7 13 10 12 16 17 19 19
21 22 23 24 23 23 19 5 6 8 15 16 3 11 7 7 8 12 13 12 12 9 14 13 15 15 7 9 6 5 10 3 6 3 10 8 6 7 7 11 12 15 18 20 21
21 23 24 26 27 23 9 8 8 6 9 21 15 7 3 9 9 13 15 13 15 17 16 7 15 15 5 4 9 9 10 4 5 6 9 15 10 15 8 8 11 13 16 20 22
22 24 25 26 29 10 9 5 3 10 8 16 15 18 14 12 15 18 19 20 15 17 16 17 1 8 2 10 12 15 14 10 11 15 19 10 20 16 10 14 7 13 14 19 22
20 21 24 31 8 4 4 1 6 6 7 16 13 12 13 12 19 14 20 18 17 19 18 16 17 10 11 15 15 17 7 7 13 16 15 9 15 12 7 5 6 15 14 16 21
22 19 20 14 14 4 5 4 9 5 6 9 10 5 12 23 3 22 16 21 20 17 12 15 18 12 16 18 13 14 14 11 15 18 22 18 15 5 3 3 10 4 2 14 19
23 20 21 6 8 8 6 8 7 8 5 9 9 12 14 20 25 4 20 19 14 20 21 19 18 10 14 11 9 14 17 20 23 20 22 19 3 8 7 5 6 4 8 2 8
23 20 10 9 1 6 6 9 9 12 5 8 12 13 16 14 22 19 17 22 22 18 21 22 23 21 16 20 20 20 23 21 21 21 22 9 4 10 12 4 5 6 5 2 5
29 19 10 10 4 7 8 11 10 4 3 4 4 8 13 11 15 25 23 22 25 27 24 21 21 28 23 26 21 22 25 23 23 24 20 10 7 6 8 8 6 7 3 1 5
31 7 10 5 11 7 11 15 10 7 4 5 8 13 13 7 8 18 24 25 22 25 28 24 22 17 7 7 10 18 24 27 30 26 27 25 16 11 9 6 6 2 1 3 2
9 7 6 5 8 10 14 23 12 2 7 8 14 5 10 15 12 12 18 19 26 22 15 18 23 22 12 12 17 21 20 14 20 27 26 22 20 13 10 2 7 6 4 4 2
7 7 6 8 9 12 18 20 15 8 6 7 8 6 13 3 10 17 14 12 11 22 25 20 20 22 16 19 19 21 21 22 25 21 24 25 23 14 5 6 4 7 5 2 3
9 9 7 9 13 16 20 20 6 10 11 12 7 12 11 11 11 15 13 12 2 9 13 16 17 22 25 22 19 20 25 21 21 26 23 25 23 19 1 4 3 3 3 1 2
6 1 7 10 11 19 17 14 9 12 16 11 14 11 12 11 12 15 15 8 7 11 4 14 16 20 23 21 24 18 21 22 24 23 23 25 23 2 5 6 6 6 6 6 4
6 7 7 12 18 14 13 16 18 13 17 16 15 14 16 18 17 13 14 10 2 12 7 9 16 22 24 18 8 15 19 21 24 26 27 27 24 20 22 12 13 9 8 7 7
7 4 6 9 17 16 17 10 17 15 10 9 12 17 18 19 20 23 22 22 18 13 11 14 22 23 27 25 23 14 21 24 24 22 30 25 28 23 13 10 5 10 9 9 10
8 6 6 14 4 8 7 15 12 9 6 11 11 16 7 13 16 19 17 14 15 13 13 19 24 21 27 27 29 29 21 22 18 21 28 24 30 21 15 5 2 8 6 7 9
11 6 7 5 11 12 14 13 8 12 4 11 5 4 14 8 14 15 16 15 17 18 14 19 21 23 25 27 28 29 22 19 41 34 26 14 33 49 24 9 4 2 3 7 8
Wind_Direction
355 349 347 346 340 338 333 334 333 333 327 321 317 311 310 312 300 230 257 75 156 164 214 192 223 239 235 255 250 252 278 36 81 64 112 148 106 85 92 117 62 65 15 140 144
352 347 345 343 340 336 333 333 332 330 322 320 314 310 313 318 280 227 96 127 157 171 207 200 195 197 246 243 232 192 293 155 32 72 101 115 100 109 137 125 109 92 102 135 154
352 349 344 343 340 334 331 331 330 323 315 315 312 305 316 310 285 76 96 148 180 197 258 281 249 279 242 216 200 86 271 133 135 48 12 107 132 145 127 141 108 125 142 153 164
351 347 344 344 339 333 331 329 327 320 310 314 305 311 312 256 45 84 133 153 181 228 235 236 267 244 237 158 144 265 103 326 110 131 143 139 98 132 352 79 88 126 152 161 171
348 344 342 342 338 331 330 327 325 317 310 309 302 332 290 223 87 137 152 168 192 233 211 214 254 308 76 13 214 331 87 211 145 131 291 104 139 57 141 96 120 136 157 168 178
346 344 342 340 339 331 328 323 319 312 306 304 299 317 236 258 114 163 187 183 222 236 205 261 356 341 288 295 172 62 243 151 167 145 194 266 158 202 144 143 140 153 166 175 182
346 345 340 336 334 329 323 318 313 308 301 296 289 290 268 43 176 166 192 200 219 243 294 315 314 297 332 237 325 237 232 178 155 167 184 245 318 193 134 167 160 169 172 179 188
346 341 337 334 330 327 321 314 306 299 295 285 266 261 286 118 215 178 194 206 218 242 270 293 300 281 253 299 229 239 203 157 158 185 122 257 219 180 151 182 173 179 178 184 190
342 338 335 332 328 323 317 309 293 283 269 271 261 230 252 134 197 195 200 211 213 231 252 281 278 270 241 231 205 217 192 70 149 136 96 256 298 116 170 191 184 185 188 192 192
339 335 332 328 326 321 315 297 308 271 229 235 268 266 202 223 174 183 200 240 219 231 240 245 242 248 219 231 264 25 359 117 25 67 184 222 236 218 171 211 203 191 195 198 200
336 331 327 324 323 321 324 223 211 207 216 232 249 226 144 124 162 196 191 211 231 223 243 197 252 233 323 40 358 284 290 292 123 337 294 270 310 276 223 190 222 210 190 203 206
334 330 326 323 319 314 281 260 35 346 289 216 240 259 233 195 200 197 183 210 208 229 216 222 238 280 91 288 274 271 277 253 258 182 267 279 274 257 223 227 206 226 206 203 203
335 330 326 322 318 290 262 351 350 338 255 223 219 225 208 212 237 185 198 213 223 237 245 248 345 48 204 248 257 252 253 349 313 303 257 252 263 231 208 207 221 207 232 202 206
331 329 326 323 303 336 229 75 297 317 265 174 204 227 212 212 231 238 194 218 232 246 241 247 257 255 239 244 264 274 62 281 292 304 312 209 293 242 235 296 244 207 198 217 197
333 328 323 320 315 250 35 285 303 230 256 148 138 87 210 206 237 198 195 223 245 231 248 248 227 236 242 246 255 277 319 293 292 283 285 267 243 345 248 166 244 112 108 189 197
329 323 321 228 223 279 295 296 239 233 239 153 155 192 192 210 225 130 198 225 243 251 262 248 276 269 266 256 279 277 286 276 268 257 263 263 262 295 344 31 292 307 150 314 216
324 312 287 309 18 330 284 230 231 244 104 165 191 180 207 185 216 205 205 212 223 225 241 244 246 250 228 259 255 255 261 270 269 250 251 108 237 314 311 293 312 8 12 223 254
323 314 200 245 282 279 243 227 251 328 207 74 229 195 226 203 204 216 226 224 218 244 262 235 235 223 225 234 254 262 259 254 270 271 277 124 246 239 357 302 223 155 162 265 227
317 205 223 185 219 242 231 225 234 265 25 258 204 244 200 206 258 205 218 235 230 213 240 257 254 266 245 281 256 258 245 260 269 273 275 282 276 209 207 331 104 42 116 205 185
310 254 173 142 190 218 230 241 259 316 307 247 259 216 248 196 198 203 209 224 242 242 215 256 262 267 264 217 243 252 275 272 230 256 269 281 281 252 157 253 36 292 186 130 243
247 230 90 171 189 216 226 233 242 191 250 275 273 267 257 276 267 263 241 212 226 237 237 237 255 260 248 236 250 233 230 249 272 271 250 251 251 98 196 221 9 306 57 99 216
281 238 141 177 199 220 231 238 278 246 202 255 262 282 286 287 277 276 269 253 22 256 220 249 249 248 248 252 225 248 263 240 241 244 259 282 282 311 321 116 87 352 132 140 355
260 77 164 211 227 227 226 253 262 235 241 237 238 244 269 268 268 256 269 292 339 261 312 265 230 255 257 249 234 231 234 254 270 271 267 268 262 206 93 203 131 133 160 163 175
273 214 157 207 260 283 248 216 240 227 261 267 264 268 264 259 255 262 268 258 175 270 16 300 270 260 268 268 7 293 250 250 250 256 259 256 262 261 255 181 147 144 166 167 183
238 285 6 197 227 236 258 243 229 231 203 260 253 246 253 259 254 252 253 258 263 239 232 244 253 270 281 292 286 244 260 275 278 267 265 276 283 278 74 13 313 158 170 172 165
316 333 339 279 282 269 228 246 248 235 236 244 229 272 303 277 268 275 279 263 259 284 223 242 253 265 280 286 285 278 277 260 261 265 272 270 272 299 47 91 175 128 168 180 178
355 287 273 252 240 226 239 222 229 255 257 256 283 315 260 339 342 315 293 287 279 280 276 276 280 264 259 268 275 270 224 264 300 306 352 341 334 315 25 343 58 140 190 188 163